Location: Newark
(41.1200°N, 81.9000°W)
Time: 22:35:43
(UTC+00:00)

Falcon 9 debris - Visible Passes

Search period start: 22 October 2019 00:00
Search period end: 01 November 2019 00:00
Orbit: 430 x 438 km, 53.0° (Epoch: 22 October)

Date Brightness Start Highest point End Pass type
(mag) Time Alt. Az. Time Alt. Az. Time Alt. Az.
22 Oct 5.1 00:53:25 10° WNW 00:55:21 29° WNW 00:55:21 29° WNW visible
23 Oct 3.1 00:10:46 10° NW 00:14:13 82° SW 00:14:47 60° SE visible
23 Oct 3.1 23:28:11 10° NW 23:31:37 65° NE 23:34:22 15° ESE visible
24 Oct 6.1 01:06:22 10° W 01:07:41 14° WSW 01:07:41 14° WSW visible
25 Oct 5.4 00:23:04 10° W 00:25:47 22° SW 00:27:29 15° S visible
25 Oct 4.8 23:40:08 10° WNW 23:43:17 34° SW 23:46:26 10° SSE visible
26 Oct 3.9 22:57:22 10° WNW 23:00:44 54° SW 23:04:06 10° SE visible
28 Oct 6.2 23:10:08 10° W 23:12:10 15° SW 23:14:13 10° SSW visible
